Skip Page Navigation
NASA JPL Caltech
NASA Logo - Jet Propulsion Laboratory + View the NASA Portal
+ Center for Near-Earth Object Studies
JPL Home Earth Solar System Stars & Galaxies Technology
JPL Solar System Dynamics
BODIES ORBITS EPHEMERIDES TOOLS PHYSICAL DATA DISCOVERY FAQ SITE MAP
JPL Small-Body Database Browser
Search: [ help ]  
385763 (2005 YF76)
Classification: Main-belt Asteroid          SPK-ID: 2385763
Ephemeris | Orbit Diagram | Orbital Elements | Mission Design | Physical Parameters | Discovery Circumstances ]

[ show orbit diagram ]
Orbital Elements at Epoch 2459200.5 (2020-Dec-17.0) TDB
Reference: JPL 15 (heliocentric ecliptic J2000)
 Element Value Uncertainty (1-sigma)   Units 
e .164903474249133 4.3495e-08  
a 2.481647488878839 1.7737e-08 au
q 2.072415196101082 1.1338e-07 au
i 4.620289539271247 4.9969e-06 deg
node 79.28865622027622 0.00011761 deg
peri 355.0671096233054 0.00012291 deg
M 317.2601581488618 3.876e-05 deg
tp 2459370.027037894185
(2021-Jun-04.52703789)
0.00015447 TDB
period 1427.935411049758
3.91
1.5309e-05
4.191e-08
d
yr
n .2521122434629891 2.7029e-09 deg/d
Q 2.890879781656596 2.0662e-08 au
  Orbit Determination Parameters
   # obs. used (total)      176  
   data-arc span      7362 days (20.16 yr)  
   first obs. used      2000-09-20  
   last obs. used      2020-11-16  
   planetary ephem.      DE441  
   SB-pert. ephem.      SB441-N16  
   condition code      0  
   norm. resid. RMS      .63454  
   source      ORB  
   producer      Otto Matic  
   solution date      2021-Apr-14 11:06:33  

Additional Information
 Earth MOID = 1.08702 au 
 Jupiter MOID = 2.37085 au 
 T_jup = 3.455 
[ show covariance matrix ]

Ephemeris | Orbit Diagram | Orbital Elements | Mission Design | Physical Parameters | Discovery Circumstances ]

Physical Parameter Table
Parameter Symbol Value Units Sigma Reference Notes
absolute magnitude H 17.6   n/a MPO437579  

385763 (2005 YF76)          Discovered 2005-Dec-24 by Spacewatch at Kitt Peak
Reference: Last Updated: 2014-02-19

Alternate Designations
 2005 YF76 = 2009 VU103 
Ephemeris | Orbit Diagram | Orbital Elements | Mission Design | Physical Parameters | Discovery Circumstances ]
ABOUT SSD CREDITS/AWARDS PRIVACY/COPYRIGHT GLOSSARY LINKS
FirstGov 2021-Jun-22 15:10 UT
(server date/time)  
NASA Home Page
Site Manager:   Ryan S. Park
Webmaster  Alan B. Chamberlin